Year,Month,Day,Hour,Minute,Value (Times are PST for temperature in C)
2009,05,30,00,00,10.90
2009,05,30,00,01,10.90
2009,05,30,00,02,11.00
2009,05,30,00,03,11.10
2009,05,30,00,04,11.10
2009,05,30,00,05,11.10
2009,05,30,00,06,11.10
2009,05,30,00,07,11.10
2009,05,30,00,08,11.10
2009,05,30,00,09,11.00
2009,05,30,00,10,10.90
2009,05,30,00,11,10.90
2009,05,30,00,12,10.90
2009,05,30,00,13,10.90
2009,05,30,00,14,10.90
2009,05,30,00,15,10.90
2009,05,30,00,16,10.90
2009,05,30,00,17,10.90
2009,05,30,00,18,10.90
2009,05,30,00,19,10.90
2009,05,30,00,20,10.90
2009,05,30,00,21,10.90
2009,05,30,00,22,10.90
2009,05,30,00,23,10.90
2009,05,30,00,24,10.90
2009,05,30,00,25,10.90
2009,05,30,00,26,10.90
2009,05,30,00,27,10.90
2009,05,30,00,28,10.90
2009,05,30,00,29,10.90
2009,05,30,00,30,10.90
2009,05,30,00,31,10.90
2009,05,30,00,32,10.90
2009,05,30,00,33,10.90
2009,05,30,00,34,10.90
2009,05,30,00,35,10.90
2009,05,30,00,36,10.90
2009,05,30,00,37,10.90
2009,05,30,00,38,10.90
2009,05,30,00,39,10.90
2009,05,30,00,40,10.90
2009,05,30,00,41,10.80
2009,05,30,00,42,10.80
2009,05,30,00,43,10.90
2009,05,30,00,44,10.90
2009,05,30,00,45,10.90
2009,05,30,00,46,10.90
2009,05,30,00,47,11.00
2009,05,30,00,48,11.10
2009,05,30,00,49,11.10
2009,05,30,00,50,11.10
2009,05,30,00,51,11.10
2009,05,30,00,52,11.10
2009,05,30,00,53,11.10
2009,05,30,00,54,11.20
2009,05,30,00,55,11.20
2009,05,30,00,56,11.20
2009,05,30,00,57,11.20
2009,05,30,00,58,11.30
2009,05,30,00,59,11.30
2009,05,30,01,00,11.30
2009,05,30,01,01,11.30
2009,05,30,01,02,11.30
2009,05,30,01,03,11.30
2009,05,30,01,04,11.30
2009,05,30,01,05,11.30
2009,05,30,01,06,11.30
2009,05,30,01,07,11.30
2009,05,30,01,08,11.30
2009,05,30,01,09,11.30
2009,05,30,01,10,11.20
2009,05,30,01,11,11.20
2009,05,30,01,12,11.20
2009,05,30,01,13,11.20
2009,05,30,01,14,11.20
2009,05,30,01,15,11.20
2009,05,30,01,16,11.20
2009,05,30,01,17,11.20
2009,05,30,01,18,11.20
2009,05,30,01,19,11.20
2009,05,30,01,20,11.20
2009,05,30,01,21,11.20
2009,05,30,01,22,11.20
2009,05,30,01,23,11.20
2009,05,30,01,24,11.20
2009,05,30,01,25,11.20
2009,05,30,01,26,11.20
2009,05,30,01,27,11.20
2009,05,30,01,28,11.20
2009,05,30,01,29,11.20
2009,05,30,01,30,11.20
2009,05,30,01,31,11.20
2009,05,30,01,32,11.10
2009,05,30,01,33,11.10
2009,05,30,01,34,11.10
2009,05,30,01,35,11.10
2009,05,30,01,36,11.10
2009,05,30,01,37,11.10
2009,05,30,01,38,11.10
2009,05,30,01,39,11.10
2009,05,30,01,40,11.10
2009,05,30,01,41,11.10
2009,05,30,01,42,11.10
2009,05,30,01,43,11.10
2009,05,30,01,44,11.10
2009,05,30,01,45,11.10
2009,05,30,01,46,11.10
2009,05,30,01,47,11.10
2009,05,30,01,48,11.10
2009,05,30,01,49,11.10
2009,05,30,01,50,11.10
2009,05,30,01,51,11.10
2009,05,30,01,52,11.00
2009,05,30,01,53,10.90
2009,05,30,01,54,10.90
2009,05,30,01,55,10.90
2009,05,30,01,56,10.90
2009,05,30,01,57,10.90
2009,05,30,01,58,10.90
2009,05,30,01,59,10.90
2009,05,30,02,00,10.90
2009,05,30,02,01,10.90
2009,05,30,02,02,10.90
2009,05,30,02,03,10.90
2009,05,30,02,04,10.90
2009,05,30,02,05,10.90
2009,05,30,02,06,10.90
2009,05,30,02,07,10.80
2009,05,30,02,08,10.80
2009,05,30,02,09,10.80
2009,05,30,02,10,10.80
2009,05,30,02,11,10.80
2009,05,30,02,12,10.80
2009,05,30,02,13,10.80
2009,05,30,02,14,10.80
2009,05,30,02,15,10.80
2009,05,30,02,16,10.80
2009,05,30,02,17,10.80
2009,05,30,02,18,10.80
2009,05,30,02,19,10.80
2009,05,30,02,20,10.80
2009,05,30,02,21,10.80
2009,05,30,02,22,10.80
2009,05,30,02,23,10.80
2009,05,30,02,24,10.80
2009,05,30,02,25,10.80
2009,05,30,02,26,10.80
2009,05,30,02,27,10.80
2009,05,30,02,28,10.80
2009,05,30,02,29,10.80
2009,05,30,02,30,10.80
2009,05,30,02,31,10.80
2009,05,30,02,32,10.80
2009,05,30,02,33,10.80
2009,05,30,02,34,10.80
2009,05,30,02,35,10.80
2009,05,30,02,36,10.80
2009,05,30,02,37,10.80
2009,05,30,02,38,10.80
2009,05,30,02,39,10.80
2009,05,30,02,40,10.70
2009,05,30,02,41,10.70
2009,05,30,02,42,10.70
2009,05,30,02,43,10.70
2009,05,30,02,44,10.70
2009,05,30,02,45,10.70
2009,05,30,02,46,10.60
2009,05,30,02,47,10.60
2009,05,30,02,48,10.60
2009,05,30,02,49,10.50
2009,05,30,02,50,10.40
2009,05,30,02,51,10.40
2009,05,30,02,52,10.30
2009,05,30,02,53,10.30
2009,05,30,02,54,10.20
2009,05,30,02,55,10.20
2009,05,30,02,56,10.20
2009,05,30,02,57,10.10
2009,05,30,02,58,10.10
2009,05,30,02,59,10.10
2009,05,30,03,00,10.10
2009,05,30,03,01,10.10
2009,05,30,03,02,10.10
2009,05,30,03,03,10.10
2009,05,30,03,04,10.10
2009,05,30,03,05,10.10
2009,05,30,03,06,10.10
2009,05,30,03,07,10.10
2009,05,30,03,08,10.10
2009,05,30,03,09,10.10
2009,05,30,03,10,10.10
2009,05,30,03,11,10.10
2009,05,30,03,12,10.10
2009,05,30,03,13,10.10
2009,05,30,03,14,10.00
2009,05,30,03,15,9.90
2009,05,30,03,16,9.90
2009,05,30,03,17,9.90
2009,05,30,03,18,9.90
2009,05,30,03,19,9.90
2009,05,30,03,20,9.90
2009,05,30,03,21,9.90
2009,05,30,03,22,9.90
2009,05,30,03,23,9.90
2009,05,30,03,24,9.90
2009,05,30,03,25,9.90
2009,05,30,03,26,9.90
2009,05,30,03,27,9.90
2009,05,30,03,28,10.00
2009,05,30,03,29,10.10
2009,05,30,03,30,10.10
2009,05,30,03,31,10.10
2009,05,30,03,32,10.10
2009,05,30,03,33,10.10
2009,05,30,03,34,10.10
2009,05,30,03,35,10.10
2009,05,30,03,36,10.10
2009,05,30,03,37,10.10
2009,05,30,03,38,10.10
2009,05,30,03,39,10.10
2009,05,30,03,40,10.10
2009,05,30,03,41,10.10
2009,05,30,03,42,10.10
2009,05,30,03,43,10.10
2009,05,30,03,44,10.00
2009,05,30,03,45,9.90
2009,05,30,03,46,9.90
2009,05,30,03,47,9.90
2009,05,30,03,48,9.90
2009,05,30,03,49,9.90
2009,05,30,03,50,9.90
2009,05,30,03,51,9.90
2009,05,30,03,52,9.90
2009,05,30,03,53,9.90
2009,05,30,03,54,9.90
2009,05,30,03,55,9.90
2009,05,30,03,56,9.90
2009,05,30,03,57,9.90
2009,05,30,03,58,9.90
2009,05,30,03,59,9.90
2009,05,30,04,00,9.90
2009,05,30,04,01,9.90
2009,05,30,04,02,9.90
2009,05,30,04,03,9.90
2009,05,30,04,04,9.80
2009,05,30,04,05,9.80
2009,05,30,04,06,9.80
2009,05,30,04,07,9.80
2009,05,30,04,08,9.80
2009,05,30,04,09,9.80
2009,05,30,04,10,9.70
2009,05,30,04,11,9.70
2009,05,30,04,12,9.70
2009,05,30,04,13,9.70
2009,05,30,04,14,9.70
2009,05,30,04,15,9.70
2009,05,30,04,16,9.70
2009,05,30,04,17,9.70
2009,05,30,04,18,9.70
2009,05,30,04,19,9.70
2009,05,30,04,20,9.60
2009,05,30,04,21,9.60
2009,05,30,04,22,9.60
2009,05,30,04,23,9.60
2009,05,30,04,24,9.60
2009,05,30,04,25,9.60
2009,05,30,04,26,9.60
2009,05,30,04,27,9.60
2009,05,30,04,28,9.60
2009,05,30,04,29,9.60
2009,05,30,04,30,9.60
2009,05,30,04,31,9.60
2009,05,30,04,32,9.60
2009,05,30,04,33,9.60
2009,05,30,04,34,9.60
2009,05,30,04,35,9.60
2009,05,30,04,36,9.60
2009,05,30,04,37,9.60
2009,05,30,04,38,9.50
2009,05,30,04,39,9.50
2009,05,30,04,40,9.50
2009,05,30,04,41,9.50
2009,05,30,04,42,9.50
2009,05,30,04,43,9.50
2009,05,30,04,44,9.50
2009,05,30,04,45,9.40
2009,05,30,04,46,9.40
2009,05,30,04,47,9.40
2009,05,30,04,48,9.40
2009,05,30,04,49,9.40
2009,05,30,04,50,9.40
2009,05,30,04,51,9.40
2009,05,30,04,52,9.40
2009,05,30,04,53,9.30
2009,05,30,04,54,9.30
2009,05,30,04,55,9.30
2009,05,30,04,56,9.20
2009,05,30,04,57,9.20
2009,05,30,04,58,9.20
2009,05,30,04,59,9.20
2009,05,30,05,00,9.20
2009,05,30,05,01,9.20
2009,05,30,05,02,9.10
2009,05,30,05,03,9.10
2009,05,30,05,04,9.10
2009,05,30,05,05,9.10
2009,05,30,05,06,9.10
2009,05,30,05,07,9.10
2009,05,30,05,08,9.10
2009,05,30,05,09,9.10
2009,05,30,05,10,9.10
2009,05,30,05,11,9.10
2009,05,30,05,12,9.10
2009,05,30,05,13,9.10
2009,05,30,05,14,9.10
2009,05,30,05,15,9.10
2009,05,30,05,16,9.10
2009,05,30,05,17,9.10
2009,05,30,05,18,9.10
2009,05,30,05,19,9.10
2009,05,30,05,20,9.10
2009,05,30,05,21,9.10
2009,05,30,05,22,9.10
2009,05,30,05,23,9.10
2009,05,30,05,24,9.10
2009,05,30,05,25,9.10
2009,05,30,05,26,9.10
2009,05,30,05,27,9.10
2009,05,30,05,28,9.00
2009,05,30,05,29,9.00
2009,05,30,05,30,9.00
2009,05,30,05,31,9.00
2009,05,30,05,32,9.00
2009,05,30,05,33,9.00
2009,05,30,05,34,9.00
2009,05,30,05,35,9.00
2009,05,30,05,36,9.00
2009,05,30,05,37,9.00
2009,05,30,05,38,9.00
2009,05,30,05,39,9.10
2009,05,30,05,40,9.10
2009,05,30,05,41,9.20
2009,05,30,05,42,9.20
2009,05,30,05,43,9.20
2009,05,30,05,44,9.20
2009,05,30,05,45,9.30
2009,05,30,05,46,9.30
2009,05,30,05,47,9.30
2009,05,30,05,48,9.30
2009,05,30,05,49,9.40
2009,05,30,05,50,9.40
2009,05,30,05,51,9.40
2009,05,30,05,52,9.40
2009,05,30,05,53,9.50
2009,05,30,05,54,9.50
2009,05,30,05,55,9.50
2009,05,30,05,56,9.50
2009,05,30,05,57,9.50
2009,05,30,05,58,9.50
2009,05,30,05,59,9.50
2009,05,30,06,00,9.60
2009,05,30,06,01,9.60
2009,05,30,06,02,9.60
2009,05,30,06,03,9.70
2009,05,30,06,04,9.70
2009,05,30,06,05,9.70
2009,05,30,06,06,9.70
2009,05,30,06,07,9.80
2009,05,30,06,08,9.80
2009,05,30,06,09,9.90
2009,05,30,06,10,9.90
2009,05,30,06,11,9.90
2009,05,30,06,12,9.90
2009,05,30,06,13,10.00
2009,05,30,06,14,10.10
2009,05,30,06,15,10.20
2009,05,30,06,16,10.30
2009,05,30,06,17,10.40
2009,05,30,06,18,10.50
2009,05,30,06,19,10.60
2009,05,30,06,20,10.70
2009,05,30,06,21,10.70
2009,05,30,06,22,10.80
2009,05,30,06,23,10.90
2009,05,30,06,24,10.90
2009,05,30,06,25,10.90
2009,05,30,06,26,11.00
2009,05,30,06,27,11.10
2009,05,30,06,28,11.10
2009,05,30,06,29,11.10
2009,05,30,06,30,11.10
2009,05,30,06,31,11.10
2009,05,30,06,32,11.10
2009,05,30,06,33,11.10
2009,05,30,06,34,11.10
2009,05,30,06,35,11.10
2009,05,30,06,36,11.10
2009,05,30,06,37,11.10
2009,05,30,06,38,11.10
2009,05,30,06,39,11.10
2009,05,30,06,40,11.10
2009,05,30,06,41,11.20
2009,05,30,06,42,11.20
2009,05,30,06,43,11.20
2009,05,30,06,44,11.20
2009,05,30,06,45,11.20
2009,05,30,06,46,11.20
2009,05,30,06,47,11.30
2009,05,30,06,48,11.30
2009,05,30,06,49,11.30
2009,05,30,06,50,11.30
2009,05,30,06,51,11.30
2009,05,30,06,52,11.30
2009,05,30,06,53,11.30
2009,05,30,06,54,11.40
2009,05,30,06,55,11.40
2009,05,30,06,56,11.40
2009,05,30,06,57,11.40
2009,05,30,06,58,11.40
2009,05,30,06,59,11.40
2009,05,30,07,00,11.60
2009,05,30,07,01,11.60
2009,05,30,07,02,11.60
2009,05,30,07,03,11.60
2009,05,30,07,04,11.70
2009,05,30,07,05,11.70
2009,05,30,07,06,11.80
2009,05,30,07,07,11.80
2009,05,30,07,08,11.80
2009,05,30,07,09,11.90
2009,05,30,07,10,12.00
2009,05,30,07,11,12.00
2009,05,30,07,12,12.10
2009,05,30,07,13,12.20
2009,05,30,07,14,12.30
2009,05,30,07,15,12.50
2009,05,30,07,16,12.60
2009,05,30,07,17,12.70
2009,05,30,07,18,12.80
2009,05,30,07,19,13.00
2009,05,30,07,20,13.10
2009,05,30,07,21,13.20
2009,05,30,07,22,13.30
2009,05,30,07,23,13.30
2009,05,30,07,24,13.40
2009,05,30,07,25,13.40
2009,05,30,07,26,13.50
2009,05,30,07,27,13.50
2009,05,30,07,28,13.50
2009,05,30,07,29,13.50
2009,05,30,07,30,13.50
2009,05,30,07,31,13.50
2009,05,30,07,32,13.50
2009,05,30,07,33,13.60
2009,05,30,07,34,13.60
2009,05,30,07,35,13.70
2009,05,30,07,36,13.70
2009,05,30,07,37,13.70
2009,05,30,07,38,13.80
2009,05,30,07,39,13.90
2009,05,30,07,40,13.90
2009,05,30,07,41,14.00
2009,05,30,07,42,14.00
2009,05,30,07,43,14.00
2009,05,30,07,44,14.00
2009,05,30,07,45,14.10
2009,05,30,07,46,14.10
2009,05,30,07,47,14.20
2009,05,30,07,48,14.20
2009,05,30,07,49,14.20
2009,05,30,07,50,14.20
2009,05,30,07,51,14.30
2009,05,30,07,52,14.40
2009,05,30,07,53,14.50
2009,05,30,07,54,14.50
2009,05,30,07,55,14.50
2009,05,30,07,56,14.50
2009,05,30,07,57,14.60
2009,05,30,07,58,14.70
2009,05,30,07,59,14.70
2009,05,30,08,00,14.80
2009,05,30,08,01,14.80
2009,05,30,08,02,14.80
2009,05,30,08,03,14.80
2009,05,30,08,04,14.80
2009,05,30,08,05,14.80
2009,05,30,08,06,14.80
2009,05,30,08,07,14.70
2009,05,30,08,08,14.60
2009,05,30,08,09,14.50
2009,05,30,08,10,14.50
2009,05,30,08,11,14.50
2009,05,30,08,12,14.60
2009,05,30,08,13,14.70
2009,05,30,08,14,14.80
2009,05,30,08,15,14.90
2009,05,30,08,16,15.00
2009,05,30,08,17,15.00
2009,05,30,08,18,15.10
2009,05,30,08,19,15.20
2009,05,30,08,20,15.10
2009,05,30,08,21,15.00
2009,05,30,08,22,14.90
2009,05,30,08,23,14.80
2009,05,30,08,24,14.80
2009,05,30,08,25,14.80
2009,05,30,08,26,14.80
2009,05,30,08,27,14.80
2009,05,30,08,28,14.80
2009,05,30,08,29,14.80
2009,05,30,08,30,14.80
2009,05,30,08,31,14.80
2009,05,30,08,32,14.80
2009,05,30,08,33,14.80
2009,05,30,08,34,14.80
2009,05,30,08,35,14.70
2009,05,30,08,36,14.70
2009,05,30,08,37,14.70
2009,05,30,08,38,14.70
2009,05,30,08,39,14.70
2009,05,30,08,40,14.80
2009,05,30,08,41,14.80
2009,05,30,08,42,14.90
2009,05,30,08,43,15.00
2009,05,30,08,44,14.80
2009,05,30,08,45,14.60
2009,05,30,08,46,14.60
2009,05,30,08,47,14.60
2009,05,30,08,48,14.60
2009,05,30,08,49,14.40
2009,05,30,08,50,14.30
2009,05,30,08,51,14.30
2009,05,30,08,52,14.20
2009,05,30,08,53,14.30
2009,05,30,08,54,14.30
2009,05,30,08,55,14.40
2009,05,30,08,56,14.50
2009,05,30,08,57,14.50
2009,05,30,08,58,14.40
2009,05,30,08,59,14.30
2009,05,30,09,00,14.30
2009,05,30,09,01,14.10
2009,05,30,09,02,14.00
2009,05,30,09,03,13.90
2009,05,30,09,04,13.70
2009,05,30,09,05,13.70
2009,05,30,09,06,13.60
2009,05,30,09,07,13.60
2009,05,30,09,08,13.50
2009,05,30,09,09,13.50
2009,05,30,09,10,13.60
2009,05,30,09,11,13.70
2009,05,30,09,12,13.70
2009,05,30,09,13,13.80
2009,05,30,09,14,13.90
2009,05,30,09,15,14.00
2009,05,30,09,16,14.10
2009,05,30,09,17,14.20
2009,05,30,09,18,14.40
2009,05,30,09,19,14.50
2009,05,30,09,20,14.50
2009,05,30,09,21,14.50
2009,05,30,09,22,14.50
2009,05,30,09,23,14.60
2009,05,30,09,24,14.50
2009,05,30,09,25,14.40
2009,05,30,09,26,14.30
2009,05,30,09,27,14.30
2009,05,30,09,28,14.20
2009,05,30,09,29,14.20
2009,05,30,09,30,14.10
2009,05,30,09,31,14.20
2009,05,30,09,32,14.20
2009,05,30,09,33,14.30
2009,05,30,09,34,14.50
2009,05,30,09,35,14.60
2009,05,30,09,36,14.60
2009,05,30,09,37,14.60
2009,05,30,09,38,14.50
2009,05,30,09,39,14.60
2009,05,30,09,40,14.60
2009,05,30,09,41,14.70
2009,05,30,09,42,14.60
2009,05,30,09,43,14.60
2009,05,30,09,44,14.60
2009,05,30,09,45,14.40
2009,05,30,09,46,14.30
2009,05,30,09,47,14.40
2009,05,30,09,48,14.50
2009,05,30,09,49,14.50
2009,05,30,09,50,14.50
2009,05,30,09,51,14.50
2009,05,30,09,52,14.50
2009,05,30,09,53,14.50
2009,05,30,09,54,14.50
2009,05,30,09,55,14.40
2009,05,30,09,56,14.30
2009,05,30,09,57,14.30
2009,05,30,09,58,14.30
2009,05,30,09,59,14.30
2009,05,30,10,00,14.30
2009,05,30,10,01,14.30
2009,05,30,10,02,14.30
2009,05,30,10,03,14.40
2009,05,30,10,04,14.40
2009,05,30,10,05,14.50
2009,05,30,10,06,14.50
2009,05,30,10,07,14.60
2009,05,30,10,08,14.60
2009,05,30,10,09,14.70
2009,05,30,10,10,14.60
2009,05,30,10,11,14.60
2009,05,30,10,12,14.60
2009,05,30,10,13,14.70
2009,05,30,10,14,14.80
2009,05,30,10,15,15.00
2009,05,30,10,16,15.10
2009,05,30,10,17,15.30
2009,05,30,10,18,15.30
2009,05,30,10,19,15.30
2009,05,30,10,20,15.20
2009,05,30,10,21,15.10
2009,05,30,10,22,15.00
2009,05,30,10,23,15.00
2009,05,30,10,24,15.00
2009,05,30,10,25,15.00
2009,05,30,10,26,15.00
2009,05,30,10,27,14.90
2009,05,30,10,28,15.00
2009,05,30,10,29,15.10
2009,05,30,10,30,15.20
2009,05,30,10,31,15.40
2009,05,30,10,32,15.60
2009,05,30,10,33,15.70
2009,05,30,10,34,15.70
2009,05,30,10,35,15.70
2009,05,30,10,36,15.60
2009,05,30,10,37,15.70
2009,05,30,10,38,15.60
2009,05,30,10,39,15.50
2009,05,30,10,40,15.40
2009,05,30,10,41,15.50
2009,05,30,10,42,15.50
2009,05,30,10,43,15.50
2009,05,30,10,44,15.70
2009,05,30,10,45,15.80
2009,05,30,10,46,15.80
2009,05,30,10,47,15.90
2009,05,30,10,48,15.90
2009,05,30,10,49,16.00
2009,05,30,10,50,16.10
2009,05,30,10,51,16.20
2009,05,30,10,52,16.30
2009,05,30,10,53,16.40
2009,05,30,10,54,16.40
2009,05,30,10,55,16.40
2009,05,30,10,56,16.40
2009,05,30,10,57,16.50
2009,05,30,10,58,16.60
2009,05,30,10,59,16.60
2009,05,30,11,00,16.70
2009,05,30,11,01,16.80
2009,05,30,11,02,16.90
2009,05,30,11,03,16.90
2009,05,30,11,04,16.90
2009,05,30,11,05,17.00
2009,05,30,11,06,17.20
2009,05,30,11,07,17.30
2009,05,30,11,08,17.50
2009,05,30,11,09,17.50
2009,05,30,11,10,17.60
2009,05,30,11,11,17.60
2009,05,30,11,12,17.60
2009,05,30,11,13,17.40
2009,05,30,11,14,17.20
2009,05,30,11,15,17.00
2009,05,30,11,16,16.90
2009,05,30,11,17,16.90
2009,05,30,11,18,17.00
2009,05,30,11,19,17.10
2009,05,30,11,20,17.20
2009,05,30,11,21,17.20
2009,05,30,11,22,17.10
2009,05,30,11,23,17.10
2009,05,30,11,24,17.00
2009,05,30,11,25,17.00
2009,05,30,11,26,17.00
2009,05,30,11,27,17.10
2009,05,30,11,28,17.10
2009,05,30,11,29,17.10
2009,05,30,11,30,17.00
2009,05,30,11,31,17.00
2009,05,30,11,32,16.80
2009,05,30,11,33,16.70
2009,05,30,11,34,16.60
2009,05,30,11,35,16.40
2009,05,30,11,36,16.30
2009,05,30,11,37,16.40
2009,05,30,11,38,16.40
2009,05,30,11,39,16.40
2009,05,30,11,40,16.30
2009,05,30,11,41,16.30
2009,05,30,11,42,16.20
2009,05,30,11,43,16.20
2009,05,30,11,44,16.20
2009,05,30,11,45,16.20
2009,05,30,11,46,16.30
2009,05,30,11,47,16.30
2009,05,30,11,48,16.30
2009,05,30,11,49,16.20
2009,05,30,11,50,16.20
2009,05,30,11,51,16.10
2009,05,30,11,52,15.90
2009,05,30,11,53,15.90
2009,05,30,11,54,15.90
2009,05,30,11,55,16.00
2009,05,30,11,56,16.10
2009,05,30,11,57,16.20
2009,05,30,11,58,16.40
2009,05,30,11,59,16.30
2009,05,30,12,00,16.30
2009,05,30,12,01,16.30
2009,05,30,12,02,16.40
2009,05,30,12,03,16.40
2009,05,30,12,04,16.40
2009,05,30,12,05,16.40
2009,05,30,12,06,16.50
2009,05,30,12,07,16.60
2009,05,30,12,08,16.70
2009,05,30,12,09,16.80
2009,05,30,12,10,16.90
2009,05,30,12,11,17.00
2009,05,30,12,12,17.00
2009,05,30,12,13,17.10
2009,05,30,12,14,17.10
2009,05,30,12,15,17.10
2009,05,30,12,16,17.20
2009,05,30,12,17,17.20
2009,05,30,12,18,17.20
2009,05,30,12,19,17.40
2009,05,30,12,20,17.60
2009,05,30,12,21,17.70
2009,05,30,12,22,17.80
2009,05,30,12,23,18.00
2009,05,30,12,24,18.10
2009,05,30,12,25,18.20
2009,05,30,12,26,18.20
2009,05,30,12,27,18.30
2009,05,30,12,28,18.40
2009,05,30,12,29,18.40
2009,05,30,12,30,18.40
2009,05,30,12,31,18.40
2009,05,30,12,32,18.40
2009,05,30,12,33,18.50
2009,05,30,12,34,18.60
2009,05,30,12,35,18.50
2009,05,30,12,36,18.50
2009,05,30,12,37,18.60
2009,05,30,12,38,18.70
2009,05,30,12,39,18.90
2009,05,30,12,40,18.90
2009,05,30,12,41,18.90
2009,05,30,12,42,18.90
2009,05,30,12,43,18.80
2009,05,30,12,44,18.70
2009,05,30,12,45,18.50
2009,05,30,12,46,18.50
2009,05,30,12,47,18.40
2009,05,30,12,48,18.40
2009,05,30,12,49,18.40
2009,05,30,12,50,18.50
2009,05,30,12,51,18.50
2009,05,30,12,52,18.60
2009,05,30,12,53,18.60
2009,05,30,12,54,18.70
2009,05,30,12,55,18.70
2009,05,30,12,56,18.70
2009,05,30,12,57,18.70
2009,05,30,12,58,18.80
2009,05,30,12,59,18.90
2009,05,30,13,00,18.90
2009,05,30,13,01,18.90
2009,05,30,13,02,18.80
2009,05,30,13,03,18.70
2009,05,30,13,04,18.50
2009,05,30,13,05,18.60
2009,05,30,13,06,18.50
2009,05,30,13,07,18.50
2009,05,30,13,08,18.50
2009,05,30,13,09,18.30
2009,05,30,13,10,18.30
2009,05,30,13,11,18.20
2009,05,30,13,12,18.30
2009,05,30,13,13,18.50
2009,05,30,13,14,18.60
2009,05,30,13,15,18.70
2009,05,30,13,16,18.90
2009,05,30,13,17,19.00
2009,05,30,13,18,19.20
2009,05,30,13,19,19.40
2009,05,30,13,20,19.50
2009,05,30,13,21,19.60
2009,05,30,13,22,19.70
2009,05,30,13,23,19.70
2009,05,30,13,24,19.80
2009,05,30,13,25,19.70
2009,05,30,13,26,19.70
2009,05,30,13,27,19.70
2009,05,30,13,28,19.70
2009,05,30,13,29,19.70
2009,05,30,13,30,19.80
2009,05,30,13,31,19.90
2009,05,30,13,32,20.00
2009,05,30,13,33,20.20
2009,05,30,13,34,20.40
2009,05,30,13,35,20.60
2009,05,30,13,36,20.80
2009,05,30,13,37,20.90
2009,05,30,13,38,20.90
2009,05,30,13,39,21.00
2009,05,30,13,40,21.10
2009,05,30,13,41,21.20
2009,05,30,13,42,21.20
2009,05,30,13,43,21.20
2009,05,30,13,44,21.20
2009,05,30,13,45,21.20
2009,05,30,13,46,21.30
2009,05,30,13,47,21.30
2009,05,30,13,48,21.40
2009,05,30,13,49,21.50
2009,05,30,13,50,21.60
2009,05,30,13,51,21.60
2009,05,30,13,52,21.70
2009,05,30,13,53,21.80
2009,05,30,13,54,21.80
2009,05,30,13,55,21.70
2009,05,30,13,56,21.70
2009,05,30,13,57,21.70
2009,05,30,13,58,21.70
2009,05,30,13,59,21.70
2009,05,30,14,00,21.50
2009,05,30,14,01,21.40
2009,05,30,14,02,21.30
2009,05,30,14,03,21.30
2009,05,30,14,04,21.20
2009,05,30,14,05,21.00
2009,05,30,14,06,20.80
2009,05,30,14,07,20.70
2009,05,30,14,08,20.50
2009,05,30,14,09,20.40
2009,05,30,14,10,20.30
2009,05,30,14,11,20.00
2009,05,30,14,12,19.60
2009,05,30,14,13,19.30
2009,05,30,14,14,19.10
2009,05,30,14,15,19.10
2009,05,30,14,16,19.10
2009,05,30,14,17,19.10
2009,05,30,14,18,19.20
2009,05,30,14,19,19.50
2009,05,30,14,20,19.70
2009,05,30,14,21,19.70
2009,05,30,14,22,19.70
2009,05,30,14,23,19.90
2009,05,30,14,24,19.90
2009,05,30,14,25,19.90
2009,05,30,14,26,19.90
2009,05,30,14,27,19.90
2009,05,30,14,28,19.90
2009,05,30,14,29,19.90
2009,05,30,14,30,20.00
2009,05,30,14,31,20.20
2009,05,30,14,32,20.20
2009,05,30,14,33,20.30
2009,05,30,14,34,20.30
2009,05,30,14,35,20.30
2009,05,30,14,36,20.30
2009,05,30,14,37,20.30
2009,05,30,14,38,20.30
2009,05,30,14,39,20.30
2009,05,30,14,40,20.30
2009,05,30,14,41,20.20
2009,05,30,14,42,20.20
2009,05,30,14,43,20.00
2009,05,30,14,44,19.80
2009,05,30,14,45,19.70
2009,05,30,14,46,19.80
2009,05,30,14,47,19.70
2009,05,30,14,48,19.50
2009,05,30,14,49,19.40
2009,05,30,14,50,19.10
2009,05,30,14,51,18.80
2009,05,30,14,52,18.70
2009,05,30,14,53,18.70
2009,05,30,14,54,18.60
2009,05,30,14,55,18.60
2009,05,30,14,56,18.60
2009,05,30,14,57,18.70
2009,05,30,14,58,18.90
2009,05,30,14,59,19.10
2009,05,30,15,00,19.30
2009,05,30,15,01,19.50
2009,05,30,15,02,19.70
2009,05,30,15,03,19.80
2009,05,30,15,04,19.90
2009,05,30,15,05,19.90
2009,05,30,15,06,20.00
2009,05,30,15,07,20.10
2009,05,30,15,08,20.10
2009,05,30,15,09,20.00
2009,05,30,15,10,19.80
2009,05,30,15,11,19.80
2009,05,30,15,12,19.90
2009,05,30,15,13,20.00
2009,05,30,15,14,20.10
2009,05,30,15,15,20.20
2009,05,30,15,16,20.20
2009,05,30,15,17,20.20
2009,05,30,15,18,20.20
2009,05,30,15,19,20.20
2009,05,30,15,20,20.20
2009,05,30,15,21,20.20
2009,05,30,15,22,20.30
2009,05,30,15,23,20.40
2009,05,30,15,24,20.40
2009,05,30,15,25,20.50
2009,05,30,15,26,20.40
2009,05,30,15,27,20.40
2009,05,30,15,28,20.40
2009,05,30,15,29,20.50
2009,05,30,15,30,20.60
2009,05,30,15,31,20.70
2009,05,30,15,32,20.80
2009,05,30,15,33,20.80
2009,05,30,15,34,20.80
2009,05,30,15,35,20.90
2009,05,30,15,36,20.90
2009,05,30,15,37,20.80
2009,05,30,15,38,20.60
2009,05,30,15,39,20.50
2009,05,30,15,40,20.50
2009,05,30,15,41,20.30
2009,05,30,15,42,20.20
2009,05,30,15,43,20.20
2009,05,30,15,44,20.00
2009,05,30,15,45,19.90
2009,05,30,15,46,19.90
2009,05,30,15,47,19.80
2009,05,30,15,48,19.70
2009,05,30,15,49,19.60
2009,05,30,15,50,19.60
2009,05,30,15,51,19.60
2009,05,30,15,52,19.60
2009,05,30,15,53,19.70
2009,05,30,15,54,19.80
2009,05,30,15,55,19.80
2009,05,30,15,56,19.90
2009,05,30,15,57,19.90
2009,05,30,15,58,19.90
2009,05,30,15,59,20.00
2009,05,30,16,00,20.00
2009,05,30,16,01,19.90
2009,05,30,16,02,19.90
2009,05,30,16,03,19.80
2009,05,30,16,04,19.80
2009,05,30,16,05,19.80
2009,05,30,16,06,19.70
2009,05,30,16,07,19.60
2009,05,30,16,08,19.40
2009,05,30,16,09,19.30
2009,05,30,16,10,19.30
2009,05,30,16,11,19.30
2009,05,30,16,12,19.30
2009,05,30,16,13,19.40
2009,05,30,16,14,19.60
2009,05,30,16,15,19.70
2009,05,30,16,16,19.90
2009,05,30,16,17,20.10
2009,05,30,16,18,20.20
2009,05,30,16,19,20.10
2009,05,30,16,20,20.00
2009,05,30,16,21,19.80
2009,05,30,16,22,19.70
2009,05,30,16,23,19.70
2009,05,30,16,24,19.70
2009,05,30,16,25,19.80
2009,05,30,16,26,19.80
2009,05,30,16,27,19.70
2009,05,30,16,28,19.60
2009,05,30,16,29,19.60
2009,05,30,16,30,19.60
2009,05,30,16,31,19.50
2009,05,30,16,32,19.40
2009,05,30,16,33,19.40
2009,05,30,16,34,19.30
2009,05,30,16,35,19.30
2009,05,30,16,36,19.40
2009,05,30,16,37,19.50
2009,05,30,16,38,19.50
2009,05,30,16,39,19.50
2009,05,30,16,40,19.50
2009,05,30,16,41,19.60
2009,05,30,16,42,19.70
2009,05,30,16,43,19.80
2009,05,30,16,44,19.80
2009,05,30,16,45,19.80
2009,05,30,16,46,19.90
2009,05,30,16,47,20.00
2009,05,30,16,48,20.10
2009,05,30,16,49,20.20
2009,05,30,16,50,20.30
2009,05,30,16,51,20.20
2009,05,30,16,52,20.20
2009,05,30,16,53,20.00
2009,05,30,16,54,19.90
2009,05,30,16,55,19.90
2009,05,30,16,56,19.90
2009,05,30,16,57,19.90
2009,05,30,16,58,19.90
2009,05,30,16,59,19.90
2009,05,30,17,00,20.00
2009,05,30,17,01,20.20
2009,05,30,17,02,20.30
2009,05,30,17,03,20.40
2009,05,30,17,04,20.60
2009,05,30,17,05,20.60
2009,05,30,17,06,20.70
2009,05,30,17,07,20.70
2009,05,30,17,08,20.60
2009,05,30,17,09,20.50
2009,05,30,17,10,20.40
2009,05,30,17,11,20.40
2009,05,30,17,12,20.40
2009,05,30,17,13,20.40
2009,05,30,17,14,20.40
2009,05,30,17,15,20.40
2009,05,30,17,16,20.40
2009,05,30,17,17,20.40
2009,05,30,17,18,20.40
2009,05,30,17,19,20.50
2009,05,30,17,20,20.70
2009,05,30,17,21,20.80
2009,05,30,17,22,21.00
2009,05,30,17,23,21.10
2009,05,30,17,24,21.20
2009,05,30,17,25,21.20
2009,05,30,17,26,21.20